This demonstration page uses our WeatherBlox Daily Observations layout. Learn more.

Left ArrowRight Arrow

Hourly Observations for August 7, 2015

Temp ( °F °C ) Dew Point ( °F °C ) Humidity (%) Winds ( mph kmh ) Pressure ( in mb ) Visibility ( mi km ) Precip ( " mm )
12:51 am 00:51 Clear 80 26.7 50 10 35 35 E 5 7 29.75 1007 10 16 0.00 0.00
1:51 am 01:51 Mostly Clear 71 21.7 53 11.7 53 53 S 7 11 29.89 1012 10 16 0.00 0.00
2:51 am 02:51 Mostly Clear 80 26.7 51 10.6 37 37 ESE 6 9 29.76 1008 10 16 0.00 0.00
3:51 am 03:51 Clear 78 25.6 51 10.6 39 39 N 5 7 29.76 1008 10 16 0.00 0.00
4:51 am 04:51 Clear 80 26.7 51 10.6 37 37 E 8 13 29.77 1008 10 16 0.00 0.00
5:51 am 05:51 Sunny 81 27.2 52 11.1 37 37 Calm 29.79 1009 10 16 0.00 0.00
6:51 am 06:51 Mostly Sunny 81 27.2 52 11.1 37 37 W 3 6 29.81 1009 10 16 0.00 0.00
7:51 am 07:51 Sunny 85 29.4 55 12.8 36 36 SSE 5 7 29.82 1010 10 16 0.00 0.00
8:51 am 08:51 Sunny 90 32.2 58 14.4 34 34 NNW 6 9 29.81 1010 10 16 0.00 0.00
9:51 am 09:51 Sunny 91 32.8 60 15.6 35 35 WNW 12 19 29.81 1010 10 16 0.00 0.00
10:51 am 10:51 Sunny 90 32.2 60 15.6 37 37 W 12 19 29.81 1010 10 16 0.00 0.00
11:51 am 11:51 Sunny 92 33.3 60 15.6 34 34 W 7 11 29.80 1009 10 16 0.00 0.00
12:51 pm 12:51 Mostly Sunny 92 33.3 58 14.4 32 32 VRB 3 6 29.77 1008 10 16 0.00 0.00
1:51 pm 13:51 Sunny 93 33.9 56 13.3 29 29 W 13 20 29.75 1007 10 16 0.00 0.00
2:51 pm 14:51 Sunny 92 33.3 59 15 33 33 NW 18 30 29.73 1007 10 16 0.00 0.00
3:51 pm 15:51 Sunny 87 30.6 62 16.7 43 43 W 24 39 29.74 1007 10 16 0.00 0.00
4:51 pm 16:51 Sunny 80 26.7 63 17.2 56 56 W 23 37 29.75 1007 10 16 0.00 0.00
5:51 pm 17:51 Sunny 75 23.9 56 13.3 52 52 NW 18 30 29.90 1013 10 16 0.00 0.00
6:51 pm 18:51 Sunny 79 26.1 64 17.8 60 60 W 15 24 29.75 1007 10 16 0.00 0.00
7:51 pm 19:51 Clear 77 25 62 16.7 60 60 W 10 17 29.76 1008 10 16 0.00 0.00
8:51 pm 20:51 Clear 77 25 61 16.1 58 58 NNW 3 6 29.78 1009 10 16 0.00 0.00
9:51 pm 21:51 Clear 76 24.4 62 16.7 62 62 SW 6 9 29.80 1009 10 16 0.00 0.00
10:51 pm 22:51 Clear 76 24.4 63 17.2 64 64 WNW 6 9 29.81 1010 10 16 0.00 0.00
11:34 pm 23:34 Mostly Cloudy with Thunderstorms 76 24.4 63 17.2 64 64 WNW 8 13 29.80 1009 10 16 0.00 0.00
11:51 pm 23:51 Mostly Cloudy with Thunderstorms 75 23.9 62 16.7 64 64 WNW 9 15 29.82 1010 10 16 0.00 0.00

Powered by AerisWeather